Location: Little Italy
(37.8008°N, 122.4108°W)
Time: 21:40:49
(UTC+00:00)

Cosmos 2180 Rocket - Pass Details

Date: 29 October 2020
Orbit: 953 x 1005 km, 82.9° (Epoch: 24 November)

Event Time Altitude Azimuth Distance (km) Brightness Sun altitude
Rises 12:11:11 0° 350° (N) 3,685 7.5 -28.4°
Reaches altitude 10° 12:13:44 10° 348° (NNW) 2,726 6.7 -27.9°
Enters shadow 12:16:58 33° 341° (NNW) 1,586 5.4 -27.3°
Exits shadow 12:19:18 65° 303° (WNW) 1,059 4.4 -26.8°
Maximum altitude 12:19:55 69° 267° (W) 1,027 4.3 -26.7°
Drops below altitude 10° 12:25:59 10° 185° (S) 2,679 6.7 -25.5°
Sets 12:28:28 0° 183° (S) 3,617 7.4 -25.0°
